Location: Franzen
(48.6167°N, 15.3833°E)
Time: 12:20:28
(UTC+00:00)

Cosmos 2315 Rocket - Pass Details

Date: 22 April 2021
Orbit: 967 x 1001 km, 82.9° (Epoch: 16 May)

Event Time Altitude Azimuth Distance (km) Brightness Sun altitude
Exits shadow 21:31:12 49° 105° (ESE) 1,261 4.3 -26.0°
Maximum altitude 21:31:40 50° 91° (E) 1,247 4.3 -26.0°
Drops below altitude 10° 21:37:47 10° 18° (NNE) 2,779 7.0 -26.4°
Sets 21:40:23 0° 13° (NNE) 3,736 7.9 -26.6°
